Estación de San Fernando

Ultimos registro cada 15 minutos 94
Estación Fecha / Hora Temperatura Humedad Lluvia Velocidad Dirección Radiación Presion
94 San Fernando 05-05-2026 23:15 11,7 90 0 0 95 0 1013,9
93 San Fernando 05-05-2026 23:00 11,7 90 0 0,4 84 0 1013,9
92 San Fernando 05-05-2026 22:45 11,7 90 0 0 84 0 1013,9
91 San Fernando 05-05-2026 22:30 11,8 89 0 0,4 84 0 1013,8
90 San Fernando 05-05-2026 22:15 11,9 88 0 0 84 0 1014
89 San Fernando 05-05-2026 22:00 12,1 88 0 0,4 84 0 1014
88 San Fernando 05-05-2026 21:45 12,2 87 0 1,3 109 0 1014
87 San Fernando 05-05-2026 21:30 12,4 86 0 0,4 82 0 1013,9
86 San Fernando 05-05-2026 21:15 12,7 84 0 0 129 0 1014
85 San Fernando 05-05-2026 21:00 13,1 83 0 0,9 64 0 1013,9
84 San Fernando 05-05-2026 20:45 13,4 81 0 1,8 80 0 1014
83 San Fernando 05-05-2026 20:30 13,7 80 0 0,9 89 0 1014
82 San Fernando 05-05-2026 20:15 13,8 80 0 0 243 0 1014
81 San Fernando 05-05-2026 20:00 13,9 79 0 0 243 0 1013,9
80 San Fernando 05-05-2026 19:45 14,2 78 0 0 111 0 1013,6
79 San Fernando 05-05-2026 19:30 14,6 77 0 0 103 0 1013,8
78 San Fernando 05-05-2026 19:15 14,8 75 0 0 124 0 1013,3
77 San Fernando 05-05-2026 19:00 14,9 73 0 0 80 0 1013,1
76 San Fernando 05-05-2026 18:45 15,2 73 0 0 80 0 1013
75 San Fernando 05-05-2026 18:30 15,4 71 0 0 80 0 1012,8
74 San Fernando 05-05-2026 18:15 15,7 71 0 0 80 0 1012,9
73 San Fernando 05-05-2026 18:00 15,9 70 0 0 80 0 1012,6
72 San Fernando 05-05-2026 17:45 16,2 69 0 0 80 0 1012,4
71 San Fernando 05-05-2026 17:30 16,4 69 0 0 80 9 1012,3
70 San Fernando 05-05-2026 17:15 16,6 68 0 0 80 16 1012
69 San Fernando 05-05-2026 17:00 16,7 66 0 0 80 21 1011,9
68 San Fernando 05-05-2026 16:45 16,8 66 0 0 64 28 1011,8
67 San Fernando 05-05-2026 16:30 16,9 66 0 0 64 40 1011,6
66 San Fernando 05-05-2026 16:15 17 65 0 0 48 54 1011,4
65 San Fernando 05-05-2026 16:00 16,9 65 0 0,4 22 76 1011,2
64 San Fernando 05-05-2026 15:45 16,7 66 0 0,4 80 111 1011,3
63 San Fernando 05-05-2026 15:30 16,2 67 0 0 50 135 1011,3
62 San Fernando 05-05-2026 15:15 15,8 74 0 0,4 106 130 1011,5
61 San Fernando 05-05-2026 15:00 15,4 74 0 0 106 100 1011,4
60 San Fernando 05-05-2026 14:45 14,9 75 0 0 60 130 1011,5
59 San Fernando 05-05-2026 14:30 14,4 78 0 0,4 12 128 1011,3
58 San Fernando 05-05-2026 14:15 14,1 79 0 0 354 139 1011,2
57 San Fernando 05-05-2026 14:00 14,2 80 0 0,4 355 176 1011,4
56 San Fernando 05-05-2026 13:45 13,8 83 0 0 102 186 1011,3
55 San Fernando 05-05-2026 13:30 13,7 86 0 0 45 199 1011,3
54 San Fernando 05-05-2026 13:15 13,4 86 0 0 318 179 1011,7
53 San Fernando 05-05-2026 13:00 13,2 86 0 0 319 188 1011,2
52 San Fernando 05-05-2026 12:45 12,9 87 0 0 318 158 1011,4
51 San Fernando 05-05-2026 12:30 12,8 88 0 0 319 146 1011,3
50 San Fernando 05-05-2026 12:15 12,7 89 0 0 222 167 1011,3
49 San Fernando 05-05-2026 12:00 12,6 88 0 0 222 162 1011,5
48 San Fernando 05-05-2026 11:45 12,3 89 0 0 222 134 1011,5
47 San Fernando 05-05-2026 11:30 12,2 87 0 0,4 222 137 1011,8
46 San Fernando 05-05-2026 11:15 12,2 87 0 0 221 149 1011,6
45 San Fernando 05-05-2026 11:00 12,2 85 0 0,9 229 153 1011,8
44 San Fernando 05-05-2026 10:45 12,2 85 0 0,9 236 151 1012
43 San Fernando 05-05-2026 10:30 12,1 86 0 1,8 178 165 1012
42 San Fernando 05-05-2026 10:15 11,8 86 0 1,8 233 130 1012,1
41 San Fernando 05-05-2026 10:00 11,7 88 0 0,4 258 107 1012
40 San Fernando 05-05-2026 09:45 11,6 85 0 0 303 102 1011,5
39 San Fernando 05-05-2026 09:30 11,9 80 0 0,4 282 97 1011,1
38 San Fernando 05-05-2026 09:15 11,8 78 0 1,8 85 53 1011
37 San Fernando 05-05-2026 09:00 11,4 81 0 2,2 84 62 1011,1
36 San Fernando 05-05-2026 08:45 11 83 0 0,4 71 46 1011,3
35 San Fernando 05-05-2026 08:30 10,7 84 0 0,4 64 23 1011,4
34 San Fernando 05-05-2026 08:15 10,8 84 0 0,9 68 25 1012
33 San Fernando 05-05-2026 08:00 10,4 88 0 1,8 72 35 1012,2
32 San Fernando 05-05-2026 07:45 10,4 88 0 0,4 141 16 1012,3
31 San Fernando 05-05-2026 07:30 10,6 88 0 1,3 78 5 1013,1
30 San Fernando 05-05-2026 07:15 10,7 87 0 0,4 59 0 1013,3
29 San Fernando 05-05-2026 07:00 10,9 85 0 0,4 71 0 1014
28 San Fernando 05-05-2026 06:45 11,4 82 0 0 82 0 1014,1
27 San Fernando 05-05-2026 06:30 11,7 80 0 0 227 0 1014,1
26 San Fernando 05-05-2026 06:15 11,8 79 0 0 227 0 1014,1
25 San Fernando 05-05-2026 06:00 11,9 79 0 0 243 0 1013,9
24 San Fernando 05-05-2026 05:45 11,9 79 0 0,4 226 0 1013,9
23 San Fernando 05-05-2026 05:30 11,9 79 0 0 180 0 1013,9
22 San Fernando 05-05-2026 05:15 11,9 79 0 0,9 252 0 1013,7
21 San Fernando 05-05-2026 05:00 11,8 79 0 0,4 260 0 1013,2
20 San Fernando 05-05-2026 04:45 11,7 79 0 0 209 0 1013,4
19 San Fernando 05-05-2026 04:30 11,8 79 0 0 214 0 1013,1
18 San Fernando 05-05-2026 04:15 11,7 80 0 0,4 235 0 1012,8
17 San Fernando 05-05-2026 04:00 11,6 79 0 0,4 204 0 1012,7
16 San Fernando 05-05-2026 03:45 11,5 79 0 0,4 204 0 1012,6
15 San Fernando 05-05-2026 03:30 11,1 80 0 0 204 0 1012,7
14 San Fernando 05-05-2026 03:15 10,8 80 0 0 204 0 1012,9
13 San Fernando 05-05-2026 03:00 10,5 81 0 0 204 0 1013
12 San Fernando 05-05-2026 02:45 10,4 82 0 0 204 0 1013
11 San Fernando 05-05-2026 02:30 10,4 82 0 0 204 0 1013,1
10 San Fernando 05-05-2026 02:15 10,4 81 0 0 204 0 1013,3
9 San Fernando 05-05-2026 02:00 10,5 81 0 0 204 0 1013,2
8 San Fernando 05-05-2026 01:45 10,4 79 0 0 204 0 1013,5
7 San Fernando 05-05-2026 01:30 10,4 81 0 0 204 0 1013,7
6 San Fernando 05-05-2026 01:15 10,3 81 0 0 204 0 1013,8
5 San Fernando 05-05-2026 01:00 10,4 80 0 0 204 0 1013,7
4 San Fernando 05-05-2026 00:45 10,4 80 0 0 204 0 1013,7
3 San Fernando 05-05-2026 00:30 10,6 78 0 0 204 0 1013,6
2 San Fernando 05-05-2026 00:15 10,7 79 0 0 204 0 1013,6
1 San Fernando 05-05-2026 00:00 10,9 79 0 0 204 0 1013,8